Retour au catalogue

COSMOS 2251 DEB

ActifLEO
NORAD 34680·DEBRIS·🇷🇺 Russia

Lancé Jun 16, 1993 depuis Plesetsk Cosmodrome

Loading…

Prochains Passages (prochaines 24 heures)

TLE

FraisSource: Space-Track

Époque: Sep 14, 2026, 10:35 UTC

1 34680U 93036YA  26257.44154722  .00002261  00000-0  44754-3 0  9991
2 34680  74.0439 322.3302 0008052 329.0181  44.0111 14.62904994923579

Suivez COSMOS 2251 DEB en temps réel avec AllMySat

Download on the App Store